Weather History for Ubon Ratchathani, Thailand

Change the Weather History Date:

Wednesday, November 7, 2012

  Actual Average Record
Temperature  
Mean Temperature 84 °F -  
Max Temperature 95 °F 87 °F - ()
Min Temperature 73 °F 67 °F - ()
Cooling Degree Days 19    
Growing Degree Days 34 (Base 50)    
Moisture  
Dew Point 72 °F    
Average Humidity 70    
Maximum Humidity 94    
Minimum Humidity 49    
Precipitation  
Precipitation 0.00 in 0.02 in - ()
Sea Level Pressure  
Sea Level Pressure 29.80 in    
Wind  
Wind Speed 2 mph ()    
Max Wind Speed 4 mph    
Max Gust Speed -    
Visibility 5.7 miles    
Events      
T = Trace of Precipitation, MM = Missing Value Source: Averaged Metar Reports

Daily Weather History Graph

Daily Weather History Graph

Search for Another Location

Airport:

Trip Planner

Search our weather history database for the weather conditions in past years. The results will help you decide how hot, cold, wet, or windy it might be!

Date:

Astronomy

Nov. 07, 2012 Rise Set
Actual Time 5:58 AM ICT 5:29 PM ICT
Civil Twilight 5:36 AM ICT 5:51 PM ICT
Nautical Twilight 5:10 AM ICT 6:17 PM ICT
Astronomical Twilight 4:45 AM ICT 6:42 PM ICT
Moon No Moon Rise 12:17 PM ICT (11/7)
Length of Visible Light 12h 15m
Length of Day
11h 30m
Waning Gibbous, 48% of the Moon is Illuminated
Nov 7
Waning Gibbous
Nov 14
New
Nov 20
First Quarter
Nov 28
Full
Dec 6
Last Quarter

Hourly Weather History & Observations

Time (ICT) Temp. Heat Index Dew Point Humidity Pressure Visibility Wind Dir Wind Speed Gust Speed Precip Events Conditions
12:00 AM 78.8 °F - 71.6 °F 78% 29.83 in 5.6 mi ENE 2.3 mph - N/A   Unknown
1:00 AM 78 °F - 72 °F 76% 29.83 in 6 mi NE 2.3 mph - -   Partly Cloudy
1:00 AM 78.8 °F - 71.6 °F 78% 29.80 in - NE 2.3 mph - N/A   Clear
3:00 AM 75.2 °F - 71.6 °F 89% 29.80 in - ENE 2.3 mph - N/A   Clear
4:00 AM 75.2 °F - 71.6 °F 89% 29.80 in - NE 2.3 mph - N/A   Clear
5:00 AM 73.4 °F - 71.6 °F 94% 29.83 in - East 2.3 mph - N/A   Clear
6:00 AM 75.2 °F - 71.6 °F 89% 29.83 in 5.6 mi Calm Calm - N/A   Scattered Clouds
6:30 AM 75.2 °F - 71.6 °F 89% 29.86 in 5.6 mi Calm Calm - N/A   Scattered Clouds
7:00 AM 75 °F - 71 °F 85% 29.87 in 6 mi Calm Calm - -   Mist
7:00 AM 75.2 °F - 71.6 °F 89% 29.86 in 5.6 mi Calm Calm - N/A   Scattered Clouds
8:00 AM 78.8 °F - 71.6 °F 78% 29.86 in - NE 3.5 mph - N/A   Clear
9:00 AM 82.4 °F 88.2 °F 73.4 °F 74% 29.86 in 6.2 mi East 2.3 mph - N/A   Scattered Clouds
10:00 AM 86.0 °F 93.4 °F 73.4 °F 66% 29.86 in 6.2 mi SSE 1.2 mph - N/A   Scattered Clouds
11:00 AM 87.8 °F 95.6 °F 73.4 °F 62% 29.83 in 6.2 mi WSW 3.5 mph - N/A   Mostly Cloudy
12:00 PM 89.6 °F 98.2 °F 73.4 °F 59% 29.80 in 6.2 mi East 2.3 mph - N/A   Mostly Cloudy
1:00 PM 90 °F - 74 °F 50% 29.78 in 6 mi NNW 2.3 mph - -   Mostly Cloudy
1:00 PM 89.6 °F 96.2 °F 71.6 °F 55% 29.77 in 6.2 mi NNW 1.2 mph - N/A   Mostly Cloudy
2:00 PM 91.4 °F 98.4 °F 71.6 °F 52% 29.74 in 6.2 mi WNW 2.3 mph - N/A   Mostly Cloudy
3:00 PM 91.4 °F 98.4 °F 71.6 °F 52% 29.71 in 6.2 mi NNE 2.3 mph - N/A   Scattered Clouds
4:00 PM 91.4 °F 96.8 °F 69.8 °F 49% 29.71 in 6.2 mi East 2.3 mph - N/A   Scattered Clouds
5:00 PM 89.6 °F 96.2 °F 71.6 °F 55% 29.74 in 6.2 mi East 2.3 mph - N/A   Mostly Cloudy
5:30 PM 87.8 °F 93.8 °F 71.6 °F 58% 29.74 in 5.6 mi SSE 1.2 mph - N/A   Mostly Cloudy
6:00 PM 87.8 °F 93.8 °F 71.6 °F 58% 29.74 in 5.0 mi SSE 1.2 mph - N/A   Mostly Cloudy
7:00 PM 85 °F - 72 °F 58% 29.78 in 5 mi SE 2.3 mph - -   Scattered Clouds
7:00 PM 84.2 °F 89.6 °F 71.6 °F 66% 29.77 in 5.0 mi SE 2.3 mph - N/A   Mostly Cloudy
8:00 PM 84.2 °F 90.9 °F 73.4 °F 70% 29.80 in 5.0 mi ENE 2.3 mph - N/A   Mostly Cloudy
9:00 PM 82.4 °F 88.2 °F 73.4 °F 74% 29.83 in 5.0 mi East 2.3 mph - N/A   Mostly Cloudy
10:00 PM 82.4 °F 88.2 °F 73.4 °F 74% 29.83 in 5.0 mi SSW 2.3 mph - N/A   Mostly Cloudy